Location: Newark
(44.3248°N, 23.7839°E)
Time: 22:10:14
(UTC+00:00)

PCSat - Pass Details

Date: 17 April 2024
Orbit: 783 x 792 km, 67.1° (Epoch: 20 May)

Event Time Altitude Azimuth Distance (km) Brightness Sun altitude
Rises 01:53:22 0° 335° (NNW) 3,299 12.9 -17.6°
Reaches altitude 10° 01:56:28 10° 353° (N) 2,367 12.4 -17.1°
Maximum altitude 02:00:24 20° 39° (NE) 1,775 12.3 -16.5°
Drops below altitude 10° 02:04:19 10° 86° (E) 2,360 13.0 -16.0°
Sets 02:07:22 0° 103° (ESE) 3,286 13.5 -15.5°
